Location: Hawk's Hollow Observatory
(42.9278°N, 85.8301°W)
Time: 19:27:40
(UTC-05:00)

ISS - Visible Passes

Search period start: 14 November 2018 00:00
Search period end: 24 November 2018 00:00
Orbit: 402 x 408 km, 51.6° (Epoch: 15 November)

Date Brightness Start Highest point End Pass type
(mag) Time Alt. Az. Time Alt. Az. Time Alt. Az.
14 Nov -3.3 05:55:53 42° SW 05:55:53 42° SW 05:58:56 10° SSE visible
15 Nov -1.0 05:06:19 16° SE 05:06:19 16° SE 05:07:04 10° SE visible
16 Nov -1.4 05:49:31 13° S 05:49:31 13° S 05:50:15 10° S visible
22 Nov -1.6 18:50:03 10° S 18:51:12 14° SSE 18:51:12 14° SSE visible
23 Nov -1.5 19:32:53 10° SW 19:34:11 22° SW 19:34:11 22° SW visible
